Theta_e
338 337 337 339 340 339 339 339 339 339 339 339 338 338 338 338 338 339 339 338 339 340 341 341 341 341 341 341 341 340 340 340 339 338 338 338 339 339 338 338 338 338 338 337 336 335 333 334 336 337 336 336 335 335 335 335 334 334 334 335 334 332 332
337 336 336 338 339 340 340 341 341 341 340 340 339 339 339 338 338 339 339 339 340 341 341 341 341 341 341 341 342 342 341 341 341 340 339 339 339 339 338 338 338 338 337 337 336 336 335 334 334 335 337 337 336 336 336 337 336 335 335 336 336 334 333
338 338 338 337 338 340 339 340 340 340 340 341 341 340 340 339 338 339 339 340 341 341 341 342 341 340 341 341 342 342 341 342 341 340 340 339 339 339 338 339 339 338 337 337 337 336 336 335 335 334 334 336 337 337 337 339 338 337 336 336 336 335 333
339 339 340 340 340 338 337 337 338 337 338 341 342 341 341 340 339 339 339 340 341 341 342 342 342 341 341 341 341 342 342 342 342 341 340 340 339 339 339 339 339 338 337 337 337 337 336 336 336 335 334 333 334 335 337 340 339 337 336 336 336 336 335
339 340 341 341 341 338 336 336 337 336 336 339 342 343 342 342 341 340 340 340 340 341 342 343 342 342 342 342 341 342 342 342 342 341 341 340 340 339 339 339 339 338 337 337 336 336 336 336 336 336 335 334 334 333 334 339 340 338 337 337 336 336 336
338 340 341 341 341 338 336 335 336 336 337 340 342 343 343 342 342 341 341 342 341 341 342 343 343 343 343 343 342 342 343 342 342 342 341 341 341 340 338 339 338 337 337 337 337 337 336 336 336 336 336 334 335 335 333 336 338 338 338 338 336 336 336
338 339 340 340 340 339 337 336 336 336 337 341 342 342 343 343 342 341 340 341 343 342 342 342 343 342 341 341 343 343 343 342 342 342 341 341 341 341 340 339 339 338 337 337 337 338 337 336 336 336 336 334 335 335 335 335 336 337 338 338 336 336 337
336 337 338 338 339 339 338 338 338 337 338 340 341 342 343 342 342 342 340 340 341 340 339 339 339 339 338 339 340 341 342 342 342 342 342 342 342 342 341 340 339 338 338 338 339 339 338 338 337 336 336 334 334 335 336 336 335 336 336 336 336 337 337
334 336 337 338 338 338 338 339 340 340 341 341 342 342 340 336 337 340 341 341 340 338 337 337 336 336 337 338 340 341 341 342 342 342 342 342 342 342 342 341 340 339 338 339 339 339 339 338 337 336 336 335 334 335 336 336 335 335 335 335 336 337 338
334 335 336 337 337 337 337 338 339 340 341 341 341 341 339 335 332 334 339 341 341 339 337 336 336 337 338 340 341 342 342 342 342 342 342 342 342 342 342 342 341 340 339 339 339 339 340 339 338 337 336 336 335 335 335 336 335 334 334 335 336 337 338
333 334 335 336 336 336 337 337 338 339 340 340 340 340 339 338 334 332 335 340 341 340 339 338 338 339 340 341 342 342 342 341 342 342 342 342 343 342 342 342 341 341 339 339 340 340 340 340 339 339 337 336 335 335 336 336 336 335 334 334 334 335 337
333 333 334 334 334 335 336 336 336 337 338 338 338 338 338 338 336 334 335 338 340 340 341 340 339 340 340 340 340 341 341 341 341 341 341 342 342 342 342 342 342 341 340 339 339 340 340 340 340 339 338 337 336 336 337 336 336 336 335 335 334 334 335
333 333 333 333 333 334 334 334 334 335 335 336 337 337 336 336 337 336 336 337 338 339 340 339 339 339 339 339 340 340 340 340 340 340 340 341 341 342 342 342 342 341 340 338 338 339 339 339 340 339 339 339 337 337 337 337 336 336 336 336 336 336 335
332 333 333 333 333 333 333 333 333 333 334 334 334 335 335 335 335 336 337 337 337 338 338 339 339 339 338 338 339 339 340 340 340 340 340 341 341 341 342 342 342 341 341 339 337 337 338 338 339 339 339 339 338 337 337 338 338 337 336 337 338 338 335
329 332 333 333 333 333 333 333 333 333 334 333 333 334 334 335 335 335 336 336 336 337 337 338 338 338 338 338 338 339 340 340 340 340 341 341 342 342 342 342 342 341 341 340 338 337 337 337 338 339 339 339 339 338 337 337 338 338 337 337 337 338 337
326 328 329 330 331 332 333 333 333 333 334 333 334 333 334 334 334 334 335 335 336 336 337 337 337 337 337 337 337 338 339 340 340 340 341 341 341 342 342 341 342 341 341 341 340 338 337 337 337 338 339 339 340 339 338 338 338 338 337 337 337 337 337
324 325 326 326 327 328 330 332 333 333 334 334 334 334 334 334 334 334 334 335 335 335 336 335 335 336 336 336 337 338 338 339 339 340 340 341 341 341 341 341 341 341 341 341 341 340 339 338 337 337 338 339 340 340 340 339 339 339 338 338 338 338 338
323 323 323 324 324 324 326 328 329 331 333 334 334 334 334 334 334 334 334 335 334 335 335 335 334 335 336 337 337 338 338 339 339 339 340 340 340 340 341 341 341 341 341 341 341 341 341 339 338 337 338 339 339 340 340 340 340 339 339 339 339 339 339
321 321 322 322 322 322 323 324 325 326 328 331 332 334 334 334 334 334 334 335 335 335 335 335 335 336 336 336 337 337 338 339 339 339 340 340 341 340 340 340 341 341 341 341 341 341 341 340 339 338 338 339 339 339 339 340 339 340 340 340 340 340 340
319 319 319 320 320 321 321 322 322 323 323 325 327 329 331 333 333 334 335 334 335 335 335 335 336 336 336 336 337 337 337 338 339 339 339 340 340 340 340 340 340 340 340 340 341 341 341 341 340 339 339 339 339 339 339 339 339 339 339 340 340 340 340
317 317 318 318 319 319 319 320 321 321 321 322 323 324 325 327 328 330 332 333 333 334 334 334 335 336 337 336 336 337 337 337 337 338 338 339 339 340 340 340 340 340 340 340 340 340 341 341 341 341 341 340 340 340 339 339 339 339 339 339 340 340 340
315 316 316 317 317 318 318 318 319 319 320 320 321 321 322 322 323 324 326 328 330 332 332 333 334 335 336 336 336 337 337 337 337 337 337 337 338 338 339 340 340 340 339 339 340 340 340 340 341 341 340 339 339 340 340 339 339 340 339 338 338 339 340
314 315 315 315 316 316 317 317 318 318 319 319 320 320 320 321 321 321 322 324 325 327 329 331 332 332 333 335 335 335 336 336 337 337 337 337 337 337 338 338 339 339 338 338 338 338 339 339 339 339 339 338 338 338 340 340 340 339 338 337 337 339 339
314 314 314 314 315 315 315 316 316 317 318 318 319 319 319 319 320 320 321 321 322 324 325 327 328 329 329 330 331 331 332 334 335 336 337 337 337 338 338 338 338 338 338 337 337 337 337 337 338 338 338 338 338 338 339 340 339 338 338 338 338 339 339
313 313 313 313 314 314 314 315 315 316 316 317 317 318 318 319 319 319 320 320 320 321 322 323 323 323 321 321 321 322 325 329 331 333 334 335 336 337 337 338 338 338 338 337 337 337 337 337 337 337 337 337 337 337 338 337 337 338 339 339 339 339 339
312 313 313 312 312 313 313 314 314 314 314 315 315 316 317 317 318 318 319 319 320 320 321 320 319 317 316 315 315 315 317 322 326 328 330 331 332 333 335 336 337 337 338 337 337 337 337 337 337 337 336 336 336 336 336 336 336 337 338 339 339 339 339
311 312 312 312 312 312 312 312 312 312 312 313 313 314 315 315 316 317 318 318 319 319 320 319 318 316 315 314 313 312 313 316 320 323 324 326 327 328 329 331 332 333 334 335 336 337 337 337 337 337 337 337 336 336 336 335 335 335 336 336 337 338 339
311 311 311 311 311 311 311 311 311 311 311 311 312 312 313 314 314 315 315 316 317 318 319 318 317 315 314 312 312 311 311 314 317 319 320 322 323 324 325 326 326 327 328 329 331 332 333 335 336 337 337 338 337 337 337 337 336 335 335 335 335 336 338
310 310 311 311 311 311 310 310 310 310 309 310 310 310 311 312 313 313 314 314 315 316 317 317 316 315 314 312 311 311 313 315 317 318 319 320 320 321 321 322 322 323 324 325 326 327 328 330 331 333 333 335 335 336 337 337 337 336 336 335 335 335 335
309 309 310 310 310 310 309 309 308 308 308 308 308 308 309 309 311 312 313 313 314 314 316 316 316 315 314 313 312 313 315 318 318 319 320 320 321 321 321 321 321 320 321 321 321 322 323 324 327 328 329 330 332 332 334 335 336 337 337 336 336 335 335
308 308 308 308 308 308 308 307 307 306 306 306 306 307 307 308 309 310 311 312 313 313 314 315 314 314 313 313 312 313 315 317 318 320 321 321 322 322 322 322 321 321 321 321 321 320 320 321 323 325 326 328 329 329 329 331 333 335 335 336 336 336 336
307 307 307 307 307 307 306 306 306 305 305 305 306 306 306 307 308 309 310 310 311 312 312 314 314 314 314 313 312 312 314 316 317 318 319 320 321 321 321 322 321 321 321 321 320 320 320 320 321 323 324 326 327 327 327 328 330 332 334 336 336 336 336
307 306 306 306 306 306 305 305 305 305 304 305 305 306 306 306 307 308 309 309 310 311 312 314 314 314 313 312 311 311 313 314 316 317 318 318 319 319 320 320 320 320 319 319 319 319 319 319 319 320 322 323 325 326 326 327 328 329 330 333 335 336 337
306 306 306 306 305 305 305 304 304 304 304 304 305 305 306 307 307 308 308 309 310 311 312 313 313 313 312 311 311 310 310 312 313 313 314 314 315 316 317 317 318 318 318 317 317 317 317 317 318 318 319 320 321 323 324 325 326 327 328 330 332 334 335
305 305 305 305 305 305 305 304 304 304 304 304 305 305 306 307 307 308 308 309 310 311 312 312 313 312 311 310 309 308 308 308 307 307 308 310 311 313 314 314 315 315 315 314 314 314 314 314 314 315 315 317 318 319 320 321 322 324 325 327 329 331 332
305 305 305 305 305 305 304 304 304 304 304 304 305 305 306 306 307 308 308 309 310 310 311 312 312 311 310 308 307 306 304 304 303 303 305 306 308 309 310 311 311 311 311 311 311 311 312 312 312 312 313 314 315 316 318 318 319 321 322 323 325 327 328
305 304 305 305 305 305 304 304 304 304 304 304 304 305 305 306 306 307 308 309 309 309 310 311 311 310 308 307 306 304 303 302 301 301 301 302 303 305 306 307 308 307 307 307 307 308 309 309 310 311 311 312 313 313 314 315 317 320 322 322 323 324 325
Wind_Speed
10 10 10 10 10 10 10 10 11 12 12 12 13 14 14 15 15 15 15 15 16 16 17 17 17 16 15 15 15 16 16 15 16 15 14 13 13 13 13 14 15 14 13 13 11 9 6 5 7 10 11 11 12 12 12 13 13 13 14 15 16 16 16
13 11 11 10 9 8 7 8 8 9 10 11 13 14 14 15 15 15 15 16 17 17 16 16 17 17 17 16 16 16 17 16 16 16 15 14 14 13 12 13 14 14 14 14 14 13 11 8 6 7 9 11 11 13 13 13 13 13 13 14 15 16 15
13 12 11 10 11 10 9 7 7 9 10 10 12 14 15 15 15 15 16 17 17 17 17 16 17 17 18 18 18 18 18 17 17 17 16 15 14 14 13 13 13 13 13 13 13 14 14 12 9 8 9 10 10 12 14 15 14 13 13 13 14 15 15
13 12 11 11 12 13 13 12 11 11 12 12 12 13 15 15 16 17 17 17 17 17 17 16 16 16 17 18 18 18 18 19 19 18 17 17 16 15 15 14 14 13 13 13 13 13 13 13 10 9 11 11 11 11 12 14 14 13 13 13 14 15 15
16 15 14 14 15 16 18 17 15 15 15 15 14 14 15 16 17 18 19 18 18 18 17 16 16 15 16 17 18 18 18 19 19 19 18 18 18 17 16 16 16 15 15 15 14 14 14 14 12 10 11 11 10 10 10 11 13 13 14 14 14 15 14
20 18 17 16 16 19 21 19 17 17 16 17 17 16 16 17 18 19 19 19 19 19 18 17 16 15 15 15 17 18 19 19 19 19 18 18 18 19 17 17 17 17 17 16 15 15 15 15 14 13 13 12 10 10 10 10 12 12 14 15 14 14 14
18 17 17 16 16 18 20 20 20 20 18 18 18 17 16 17 18 19 20 20 19 19 19 18 18 18 17 16 17 18 20 20 18 19 19 19 19 19 18 17 17 17 17 17 16 16 16 16 16 14 13 13 12 13 12 12 12 12 14 15 15 14 13
15 15 17 18 17 16 17 18 20 21 21 20 19 18 17 16 17 18 19 21 22 22 22 21 21 20 20 20 20 21 22 22 20 19 19 20 20 20 20 19 18 17 18 17 17 17 17 17 16 16 14 11 10 11 11 12 13 14 14 13 14 15 13
14 15 16 16 16 16 16 17 18 19 20 20 20 21 21 20 19 18 18 19 22 25 25 24 23 22 22 22 22 21 22 22 20 20 20 20 20 20 20 20 19 18 18 18 18 18 18 18 18 17 17 14 11 8 8 10 11 12 14 13 13 14 14
13 13 13 13 13 14 16 17 17 17 19 20 19 19 21 22 22 21 20 18 20 23 24 24 24 23 21 21 20 20 20 20 19 20 20 20 20 20 20 20 19 19 18 18 19 19 18 18 18 18 18 18 16 11 7 7 8 9 11 13 13 13 14
11 11 12 12 12 12 14 15 15 16 18 18 18 17 17 20 22 23 22 19 19 21 22 22 21 20 20 19 19 19 19 18 18 19 19 18 19 19 19 20 19 19 18 18 18 19 19 18 18 19 19 19 19 16 12 9 8 10 11 11 13 12 14
8 9 9 9 9 10 12 13 14 15 15 16 16 16 16 18 19 20 20 19 19 20 20 20 19 19 19 18 18 18 17 17 18 19 19 18 18 18 18 19 19 19 18 19 19 19 19 19 19 19 19 19 20 19 18 14 10 11 12 12 13 13 13
6 7 8 7 8 10 11 13 15 15 15 15 15 15 17 18 18 18 17 17 18 19 19 19 19 18 18 17 17 16 17 18 19 20 19 18 18 18 18 19 19 19 19 19 20 20 20 20 19 19 19 19 21 20 20 19 14 13 15 15 14 14 13
4 6 7 7 8 9 10 12 13 14 14 14 14 15 17 18 18 18 18 18 19 19 19 19 18 17 17 17 16 16 16 18 19 19 19 19 19 19 20 20 20 19 20 20 20 19 20 19 19 20 20 20 22 21 20 20 18 17 18 17 16 15 14
1 2 3 4 5 6 7 8 10 12 13 14 14 14 15 16 17 18 18 19 19 19 20 20 19 18 18 17 17 17 17 18 19 19 19 19 20 20 20 21 20 20 20 21 21 20 20 20 19 20 21 21 22 22 21 21 20 18 19 18 17 17 15
5 3 1 0 2 3 5 7 8 9 12 13 13 13 14 16 17 16 17 18 18 18 20 21 20 19 19 17 17 17 17 18 19 19 19 20 20 20 20 21 21 20 20 20 21 21 21 21 21 21 21 22 22 23 23 22 21 20 20 19 18 18 17
7 6 4 3 2 1 3 6 7 8 9 10 11 12 14 15 16 16 17 18 18 19 20 21 20 19 19 18 17 18 17 18 18 18 19 20 20 20 20 20 21 20 20 20 21 21 21 21 22 21 22 22 22 23 23 23 23 22 21 20 19 19 18
6 6 5 5 4 3 2 2 4 5 6 8 9 10 11 13 15 16 18 18 18 18 19 20 20 19 19 18 18 18 17 18 18 19 19 20 20 21 21 21 21 20 20 21 21 22 22 22 22 22 22 22 22 23 23 23 23 23 22 22 22 20 19
7 6 6 6 6 5 4 3 2 2 3 5 6 8 9 11 12 14 15 16 16 17 17 18 18 18 19 18 18 18 17 17 18 19 19 20 20 21 22 21 21 21 21 22 22 22 22 22 23 23 22 23 23 23 22 22 22 22 23 24 23 22 21
7 7 7 7 7 6 6 5 4 3 3 3 3 5 7 8 10 11 12 13 14 15 16 16 16 17 17 17 17 17 17 18 18 18 18 19 19 20 21 21 21 21 22 22 22 22 22 23 24 24 23 23 23 23 22 21 21 21 22 22 23 23 22
7 7 8 8 7 7 7 7 7 6 5 4 4 4 4 6 7 9 10 11 12 13 14 16 16 16 16 16 17 17 18 18 18 18 18 18 18 19 20 21 21 21 22 23 23 22 22 22 21 21 23 24 23 22 22 21 21 21 21 20 20 20 20
7 7 8 8 8 8 8 8 8 7 7 6 6 6 6 6 7 8 9 10 10 11 12 14 14 15 15 15 15 16 17 17 18 19 19 18 19 19 19 19 20 21 22 23 24 24 24 23 22 22 24 25 24 23 23 22 21 20 18 18 19 19 18
7 7 8 8 8 8 9 8 9 9 8 8 8 8 8 8 9 9 9 9 10 10 11 11 13 16 16 16 16 15 15 16 17 17 18 19 19 20 20 20 20 22 24 25 26 27 29 29 29 29 29 26 24 23 22 22 22 21 19 19 20 19 18
7 7 7 8 8 8 9 9 9 9 9 9 9 9 9 10 11 11 11 11 11 10 10 11 13 16 17 17 17 16 15 15 16 16 17 18 19 19 19 20 20 21 23 25 27 29 31 33 34 35 35 34 32 29 25 23 23 23 21 21 22 20 19
8 8 7 8 8 9 9 9 9 10 10 10 10 10 11 11 12 12 12 13 14 13 13 13 15 17 17 16 17 17 16 15 15 16 16 17 18 18 18 19 20 20 21 22 24 25 27 29 31 33 35 37 38 38 37 36 33 30 25 23 22 22 21
8 8 8 8 9 10 10 10 10 11 11 12 12 13 13 13 13 13 14 14 15 15 14 15 18 21 20 19 19 19 17 16 15 16 16 17 17 17 18 18 19 19 20 21 22 23 23 25 27 29 31 32 34 37 39 40 40 39 37 31 26 24 23
8 8 9 9 10 10 11 11 11 12 12 13 13 14 15 15 15 16 15 15 15 15 15 16 18 22 23 22 21 21 20 19 18 18 18 18 19 19 19 19 19 19 19 20 21 22 22 24 25 26 28 30 32 34 35 37 38 40 42 42 39 35 29
9 9 9 10 10 11 11 12 12 13 13 13 14 14 15 15 16 16 16 16 16 16 15 15 18 21 22 22 22 21 20 19 18 19 19 20 21 21 21 21 22 22 22 22 23 23 24 25 25 26 26 27 28 29 31 33 35 36 39 43 46 45 39
10 10 10 10 11 11 11 12 12 13 13 14 14 14 15 15 15 16 16 16 17 17 16 15 17 19 19 19 18 17 17 17 17 18 19 19 20 21 21 21 22 22 23 24 25 26 28 28 28 28 29 29 29 29 29 30 31 34 36 38 41 44 43
12 12 12 12 12 12 13 13 13 13 13 14 14 15 15 15 15 15 16 16 16 17 16 14 14 16 16 15 13 12 13 14 15 16 17 17 18 19 20 21 22 23 24 25 27 29 30 31 31 30 31 31 31 32 32 31 31 34 36 37 38 40 41
12 12 13 13 13 14 14 13 13 12 13 14 14 15 15 15 15 15 15 15 15 16 16 15 15 15 15 13 12 11 12 13 13 14 15 16 17 18 19 21 23 25 25 27 29 31 32 33 32 31 31 32 32 32 32 31 31 34 37 38 40 41 41
11 12 13 13 13 14 13 12 12 11 12 12 13 13 13 14 14 14 14 15 15 16 16 15 14 13 12 12 11 10 11 13 13 14 15 16 16 17 18 20 22 25 27 29 32 34 34 35 34 32 31 31 32 33 32 32 32 33 33 34 36 39 41
11 12 13 13 13 13 13 12 11 11 11 11 12 12 12 13 14 14 14 14 14 14 14 14 12 11 11 12 12 10 11 12 14 15 17 18 18 19 19 20 21 23 25 28 31 32 33 34 36 37 35 34 33 31 30 30 32 33 33 33 32 32 33
11 12 12 13 13 13 12 12 12 12 11 11 12 12 13 13 14 13 13 13 12 12 12 12 12 12 12 12 11 10 10 11 13 16 18 19 19 20 20 21 21 22 23 26 28 29 30 31 32 35 37 38 37 35 34 32 31 32 33 32 31 32 31
11 11 12 13 13 13 13 12 12 11 11 12 12 12 12 12 12 12 12 11 11 10 11 11 11 11 11 11 12 12 13 13 14 15 17 19 19 20 21 23 24 25 27 29 31 32 34 34 34 36 37 38 38 39 40 41 37 34 33 31 30 32 31
11 11 11 12 13 13 13 13 12 11 11 12 12 12 11 11 11 12 11 10 9 9 9 10 10 10 12 13 14 14 15 15 14 15 17 20 22 23 23 24 26 28 29 31 33 35 36 36 38 39 39 38 37 35 36 39 38 36 35 34 32 32 32
10 10 11 12 12 13 14 13 12 12 11 11 11 11 11 11 11 12 11 11 10 9 9 10 10 11 12 13 13 13 14 16 17 19 21 23 24 24 24 25 28 31 32 34 35 37 39 41 42 42 42 40 39 37 36 37 35 33 34 35 33 32 32
Wind_Direction
202 204 201 202 208 212 215 214 213 210 207 209 212 214 218 219 219 221 222 221 221 224 225 227 232 231 228 227 223 222 223 219 214 215 220 220 221 224 223 232 243 249 251 249 250 256 263 246 217 216 221 221 224 228 231 233 235 236 237 236 237 236 233
200 201 197 196 199 203 211 217 220 220 214 212 215 216 216 216 216 217 219 220 222 226 229 232 235 235 235 233 229 227 226 228 225 221 222 222 223 225 223 225 234 240 243 247 248 247 253 259 247 226 215 212 222 231 228 228 231 231 233 233 234 237 236
199 202 199 193 191 189 197 211 227 239 238 223 215 217 217 215 215 216 219 222 225 229 233 237 239 239 239 237 234 233 231 232 232 229 226 226 226 228 229 228 230 235 239 241 239 238 242 247 252 253 235 218 224 232 224 222 227 227 228 228 230 235 237
201 205 208 205 199 194 195 196 202 224 244 240 221 215 217 215 215 217 220 225 229 233 236 240 242 242 242 241 239 237 237 236 235 234 232 231 231 231 232 233 232 234 238 241 238 234 236 241 245 253 250 241 242 240 224 216 221 225 224 224 226 230 233
203 204 207 209 210 212 210 202 197 203 221 234 228 216 214 214 215 217 220 223 227 231 235 239 243 244 245 246 244 241 239 238 237 237 236 234 234 234 234 235 236 238 239 242 244 240 237 240 246 251 251 249 250 250 234 217 222 229 226 224 225 226 227
208 207 207 209 214 219 217 210 208 210 213 223 226 220 215 213 213 216 219 222 224 226 228 232 235 239 244 248 250 247 244 242 239 237 237 235 234 234 236 237 237 239 241 240 242 243 242 242 247 252 255 254 254 256 248 230 231 235 230 226 224 221 220
214 215 215 219 220 222 221 216 216 218 217 223 227 224 220 217 216 218 220 221 222 223 223 226 228 229 234 242 249 251 250 249 244 239 238 236 235 235 236 239 239 239 241 240 239 240 242 242 245 250 255 256 253 255 256 247 242 236 231 227 220 218 217
226 226 227 230 227 223 223 219 217 218 219 223 228 229 228 226 224 225 224 222 223 225 226 229 233 233 233 235 241 248 252 252 249 244 241 238 236 235 234 236 240 242 241 240 238 238 239 241 246 249 253 256 252 249 251 251 247 239 235 230 219 216 215
230 229 231 234 232 228 226 222 223 225 225 225 229 234 237 239 238 235 233 229 228 230 230 231 234 236 237 237 238 242 245 246 247 246 243 241 239 237 236 237 239 242 243 242 241 240 240 243 246 247 247 249 253 253 250 249 249 244 236 230 222 215 212
230 230 232 234 234 237 237 233 232 235 236 234 233 237 240 243 246 244 240 235 232 232 231 232 234 235 238 238 237 237 236 237 241 243 244 244 242 240 240 240 239 242 245 244 243 243 243 244 246 248 246 244 247 253 260 256 254 254 239 227 226 216 206
234 235 237 238 237 239 241 240 239 243 246 245 242 242 241 242 247 251 247 240 235 232 229 230 232 232 234 236 237 236 236 236 238 241 241 242 244 244 244 243 241 241 243 244 243 244 244 245 245 245 245 245 245 246 255 262 261 264 255 234 235 228 206
235 237 238 240 240 241 243 244 245 248 251 252 250 249 247 245 247 251 249 242 239 236 231 229 229 229 231 234 238 238 236 236 238 240 239 237 240 242 243 245 242 239 241 242 241 241 242 244 243 243 244 244 244 243 247 256 259 261 259 246 244 241 222
236 236 235 236 238 242 245 247 250 252 252 253 253 252 252 250 248 247 244 239 238 239 237 234 230 229 232 233 235 237 235 234 236 238 237 235 236 236 237 239 240 238 239 240 241 239 239 241 241 242 242 241 242 241 242 248 254 257 258 255 253 247 237
233 234 231 231 236 241 244 247 250 251 252 252 252 251 250 250 249 247 243 239 237 237 236 233 228 228 232 233 232 233 232 232 233 234 236 235 235 235 234 236 237 236 235 237 240 239 237 237 237 238 240 240 242 240 237 241 250 256 257 258 256 252 243
330 250 231 231 239 244 246 249 250 248 247 248 247 245 244 246 247 246 245 243 240 238 236 233 232 231 231 230 231 231 230 230 232 232 235 237 237 238 236 236 239 238 236 236 238 239 239 237 235 235 236 237 239 239 236 237 244 253 257 256 256 254 247
33 34 42 351 271 260 255 252 249 246 244 244 243 242 240 241 242 241 242 243 241 241 241 240 238 235 233 231 230 230 229 230 232 233 235 238 241 244 244 242 241 241 240 239 236 237 240 240 239 238 237 236 237 239 238 237 239 246 253 256 256 255 250
36 36 42 45 42 319 271 260 254 250 246 245 243 241 239 238 239 238 238 240 241 243 245 246 243 239 238 237 233 232 229 228 230 232 235 239 241 245 248 247 246 244 243 242 238 235 237 240 241 242 242 241 239 240 240 238 238 241 247 253 254 254 254
26 27 29 29 32 32 358 302 282 267 257 254 250 247 243 240 240 240 239 239 241 241 242 244 244 242 241 240 238 236 233 230 229 229 231 236 240 242 244 246 248 246 244 244 242 238 236 237 240 242 243 243 242 242 241 240 240 241 243 248 251 253 254
6 7 9 8 8 7 5 -0 345 313 284 273 264 256 250 245 244 244 243 242 241 240 241 242 245 245 243 241 240 239 239 237 236 233 232 233 236 239 242 243 245 245 245 245 245 243 239 238 239 239 240 243 244 244 244 244 244 243 244 247 250 252 252
352 352 352 352 352 351 349 346 341 338 328 309 290 272 261 255 251 248 246 245 243 244 245 245 247 249 247 245 243 242 241 241 242 242 239 237 237 239 241 243 244 245 246 247 247 246 244 243 242 240 239 241 244 245 246 245 245 244 246 248 250 251 252
344 343 340 339 339 339 338 335 331 330 327 318 307 294 283 273 264 257 253 249 246 248 248 247 247 248 247 247 247 246 245 245 246 247 246 245 244 243 243 244 245 245 246 247 247 246 245 246 247 245 242 241 241 242 243 244 244 244 244 247 250 251 252
340 337 336 333 331 331 328 325 322 319 315 310 304 299 294 287 277 268 261 254 249 247 246 244 244 245 245 247 249 249 249 248 248 248 249 250 248 248 248 246 245 245 246 247 247 245 243 242 243 244 245 245 243 241 241 242 243 243 242 246 249 249 250
344 339 337 333 329 327 322 320 316 312 307 302 299 297 292 288 283 276 269 263 256 250 246 243 242 242 242 244 249 255 258 256 254 253 251 251 251 251 250 249 248 247 248 249 250 249 247 244 242 243 244 244 244 245 246 244 243 243 242 244 246 244 245
347 342 337 332 329 325 320 317 312 307 305 302 298 295 288 283 280 277 274 271 266 260 254 249 245 242 241 243 249 256 262 265 264 260 257 255 255 255 253 253 252 251 250 250 250 251 251 250 248 247 247 245 243 244 248 251 251 248 244 243 245 243 243
348 343 337 333 329 325 319 314 309 304 302 301 297 292 288 282 278 275 272 271 269 265 261 257 254 252 252 253 255 257 260 266 268 266 264 262 261 260 259 258 257 255 254 251 250 252 253 254 255 254 253 250 248 247 248 251 254 254 251 248 246 244 242
348 344 340 335 330 325 319 313 309 304 300 298 293 287 284 281 279 277 273 270 267 265 263 263 263 265 266 265 264 262 260 262 265 266 266 267 267 267 265 265 263 260 258 256 255 255 255 257 259 260 259 257 254 253 252 251 250 251 253 256 255 250 245
346 343 339 336 331 324 319 314 308 303 298 295 290 286 283 280 277 276 274 272 270 267 265 263 264 267 269 269 269 266 262 260 260 261 262 263 264 265 266 267 267 266 265 264 261 259 258 258 259 260 260 258 256 257 257 255 252 250 250 252 254 254 251
343 339 335 334 332 324 318 314 309 306 302 296 292 289 286 282 277 275 275 275 275 274 270 267 267 269 271 272 273 271 268 264 261 260 260 259 260 262 262 264 266 267 268 267 265 264 264 264 263 262 261 259 256 255 255 255 254 252 250 249 249 249 250
340 337 333 332 331 326 322 316 311 308 305 300 297 294 290 287 282 278 277 276 275 276 275 275 275 277 280 279 277 274 271 266 261 260 259 259 259 260 261 262 263 265 265 265 265 264 264 265 267 267 266 264 262 260 257 254 255 256 254 251 249 247 247
339 337 336 333 331 329 325 319 315 312 308 304 300 297 294 290 285 282 280 277 275 276 278 280 281 284 288 289 286 281 274 269 265 263 263 262 262 261 261 260 261 263 264 264 264 263 263 263 263 264 265 265 265 264 262 260 259 260 261 259 256 253 250
340 339 338 335 332 329 326 322 319 316 311 306 301 298 297 293 288 284 281 278 277 278 278 279 282 287 290 294 296 289 281 278 274 271 270 268 266 266 264 262 261 262 262 262 262 262 262 262 261 260 260 261 261 261 261 261 260 260 262 263 261 259 255
342 340 337 335 331 328 326 323 321 317 313 308 304 302 299 296 293 290 285 283 282 281 279 279 283 289 292 297 300 292 283 282 282 280 279 277 274 272 270 267 264 263 263 264 264 264 263 263 263 262 261 261 260 259 258 257 256 256 258 258 258 257 255
345 342 340 339 335 331 329 325 321 319 314 309 307 305 303 300 297 294 291 289 286 282 281 282 283 288 294 298 299 294 287 286 287 287 287 285 283 279 275 272 269 267 267 269 270 270 268 266 265 264 263 262 261 262 263 261 258 257 257 256 255 254 254
347 345 343 343 339 336 333 326 323 322 317 312 310 307 306 306 302 299 297 294 290 288 285 284 286 293 300 301 298 295 293 294 295 296 293 289 286 283 279 277 274 271 271 271 271 271 271 270 270 269 265 263 262 264 268 271 270 266 263 260 257 255 252
350 346 346 346 344 342 340 332 327 326 321 318 316 313 312 312 309 308 306 301 297 296 292 291 293 298 304 305 301 298 297 296 297 298 296 291 286 283 281 279 278 276 276 275 273 272 272 272 274 274 272 271 270 269 268 268 270 269 267 264 261 257 254
353 349 348 348 348 349 348 341 335 333 329 326 323 320 320 321 319 317 316 313 310 306 303 303 304 305 308 309 308 307 305 300 295 294 293 289 286 284 282 280 280 279 277 276 274 273 273 272 273 274 275 275 275 275 274 271 267 264 263 262 261 259 255
353 352 350 350 350 353 353 350 346 342 338 334 330 327 326 326 325 324 322 321 320 319 317 314 311 313 316 317 317 315 308 299 295 295 292 287 283 282 281 280 279 278 277 276 275 274 272 269 268 269 270 271 273 274 276 275 270 263 259 256 256 256 255